Location: ????????
(37.6846°N, 24.0673°E)
Time: 13:52:18
(UTC+00:00)

Cosmos 1437 Rocket - Pass Details

Date: 14 July 2020
Orbit: 506 x 562 km, 81.2° (Epoch: 03 August)

Event Time Altitude Azimuth Distance (km) Brightness Sun altitude
Rises 00:32:53 0° 345° (NNW) 2,723 7.0 -24.0°
Reaches altitude 10° 00:35:07 10° 341° (NNW) 1,817 5.9 -23.8°
Enters shadow 00:38:02 41° 312° (NW) 791 3.6 -23.4°
